TimeAKDT,TemperatureF,Dew PointF,Humidity,Sea Level PressureIn,VisibilityMPH,Wind Direction,Wind SpeedMPH,Gust SpeedMPH,PrecipitationIn,Events,Conditions,WindDirDegrees,DateUTC
12:17 AM,37.4,33.8,87,29.70,10.0,NNW,3.5,-,N/A,,Mostly Cloudy,340,2011-10-24 08:17:00
12:53 AM,37.9,35.1,89,29.70,10.0,Calm,Calm,-,N/A,,Overcast,0,2011-10-24 08:53:00
1:37 AM,37.4,35.6,93,29.69,10.0,Calm,Calm,-,0.02,Rain,Light Rain,0,2011-10-24 09:37:00
1:53 AM,37.9,35.1,89,29.69,7.0,Calm,Calm,-,0.03,Rain,Light Rain,0,2011-10-24 09:53:00
2:16 AM,37.4,35.6,93,29.68,10.0,Calm,Calm,-,0.01,Rain,Light Rain,0,2011-10-24 10:16:00
2:35 AM,37.4,35.6,93,29.68,7.0,Calm,Calm,-,0.03,Rain,Light Rain,0,2011-10-24 10:35:00
2:53 AM,37.9,36.0,93,29.67,9.0,Calm,Calm,-,0.04,Rain,Light Rain,0,2011-10-24 10:53:00
3:53 AM,37.9,35.1,89,29.68,5.0,Calm,Calm,-,0.15,Rain,Rain,0,2011-10-24 11:53:00
4:53 AM,36.0,33.1,89,29.67,8.0,North,4.6,-,0.06,Rain,Light Rain,360,2011-10-24 12:53:00
5:53 AM,36.0,33.1,89,29.66,10.0,NNW,3.5,-,0.02,Rain,Light Rain,330,2011-10-24 13:53:00
6:53 AM,37.0,34.0,89,29.65,10.0,Calm,Calm,-,0.01,,Overcast,0,2011-10-24 14:53:00
7:53 AM,37.0,35.1,93,29.64,10.0,Calm,Calm,-,0.03,Rain,Light Rain,0,2011-10-24 15:53:00
8:53 AM,37.0,35.1,93,29.64,10.0,Calm,Calm,-,0.03,,Overcast,0,2011-10-24 16:53:00
9:45 AM,37.4,35.6,93,29.65,4.0,SSE,4.6,-,0.05,Rain,Rain,150,2011-10-24 17:45:00
9:53 AM,37.9,36.0,93,29.65,4.0,South,4.6,-,0.08,Rain,Rain,180,2011-10-24 17:53:00
10:03 AM,37.4,35.6,93,29.64,4.0,Calm,Calm,-,0.01,Rain,Light Rain,0,2011-10-24 18:03:00
11:46 AM,39.2,37.4,93,29.63,4.0,Calm,Calm,-,0.04,Rain,Light Rain,0,2011-10-24 19:46:00
11:53 AM,39.0,37.0,93,29.63,3.0,Calm,Calm,-,0.06,Rain,Rain,0,2011-10-24 19:53:00
11:57 AM,39.2,37.4,93,29.63,2.0,Calm,Calm,-,0.02,Rain,Rain,0,2011-10-24 19:57:00
12:13 PM,39.2,37.4,93,29.63,5.0,Calm,Calm,-,0.04,Rain,Light Rain,0,2011-10-24 20:13:00
12:40 PM,44.6,37.4,76,29.61,10.0,SSE,15.0,24.2,0.04,Rain,Light Rain,150,2011-10-24 20:40:00
12:53 PM,46.0,37.9,73,29.61,10.0,SSE,18.4,25.3,0.04,Rain,Light Rain,150,2011-10-24 20:53:00
1:02 PM,46.4,39.2,76,29.61,10.0,SSE,16.1,31.1,0.00,Rain,Light Rain,160,2011-10-24 21:02:00
1:37 PM,46.4,39.2,76,29.60,5.0,SSE,12.7,23.0,0.04,Rain,Light Rain,160,2011-10-24 21:37:00
1:53 PM,45.0,39.9,82,29.60,3.0,South,13.8,23.0,0.07,Rain,Light Rain,190,2011-10-24 21:53:00
2:53 PM,46.0,39.9,79,29.59,4.0,SSE,24.2,29.9,0.09,Rain,Rain,150,2011-10-24 22:53:00
3:21 PM,44.6,37.4,76,29.60,5.0,SSE,20.7,34.5,0.04,Rain,Light Rain,160,2011-10-24 23:21:00
3:31 PM,44.6,39.2,81,29.60,4.0,South,13.8,27.6,0.06,Rain,Rain,170,2011-10-24 23:31:00
3:53 PM,45.0,39.0,80,29.58,3.0,South,9.2,17.3,0.12,Rain,Rain,190,2011-10-24 23:53:00
4:17 PM,46.4,41.0,81,29.57,2.0,SSE,19.6,35.7,0.08,Rain,Rain,160,2011-10-25 00:17:00
4:32 PM,46.4,41.0,81,29.56,4.0,SSE,26.5,36.8,0.10,Rain,Light Rain,160,2011-10-25 00:32:00
4:53 PM,46.9,42.1,83,29.55,5.0,SSE,24.2,34.5,0.11,Rain,Light Rain,160,2011-10-25 00:53:00
5:53 PM,46.9,42.1,83,29.53,6.0,SSE,20.7,33.4,0.06,Rain,Light Rain,160,2011-10-25 01:53:00
6:43 PM,46.4,42.8,87,29.53,7.0,South,17.3,35.7,0.04,Rain,Light Rain,170,2011-10-25 02:43:00
6:53 PM,46.9,42.1,83,29.53,6.0,South,16.1,32.2,0.06,Rain,Light Rain,170,2011-10-25 02:53:00
7:01 PM,46.4,42.8,87,29.53,5.0,South,16.1,28.8,0.01,Rain,Light Rain,170,2011-10-25 03:01:00
7:36 PM,46.4,42.8,87,29.51,5.0,South,8.1,25.3,0.07,Rain,Rain,180,2011-10-25 03:36:00
7:53 PM,46.9,42.1,83,29.51,4.0,South,12.7,23.0,0.11,Rain,Rain,170,2011-10-25 03:53:00
8:02 PM,46.4,42.8,87,29.50,5.0,South,15.0,31.1,0.01,Rain,Light Rain,170,2011-10-25 04:02:00
8:53 PM,46.9,-9999,N/A,29.50,5.0,South,20.7,35.7,0.10,Rain,Light Rain,170,2011-10-25 04:53:00
9:11 PM,46.4,-9999,N/A,29.50,5.0,South,17.3,29.9,0.05,Rain,Light Rain,170,2011-10-25 05:11:00
10:08 PM,46.4,-9999,N/A,29.47,6.0,South,12.7,35.7,0.02,Rain,Light Rain,170,2011-10-25 06:08:00
10:48 PM,46.4,-9999,N/A,29.47,4.0,South,19.6,44.9,0.10,Rain,Light Rain,170,2011-10-25 06:48:00
10:53 PM,46.9,-9999,N/A,29.47,4.0,South,20.7,33.4,0.11,Rain,Light Rain,170,2011-10-25 06:53:00
11:53 PM,46.9,-9999,N/A,29.47,4.0,South,18.4,34.5,0.15,Rain,Rain,170,2011-10-25 07:53:00